TimeEST,TemperatureF,Dew PointF,Humidity,Sea Level PressureIn,VisibilityMPH,Wind Direction,Wind SpeedMPH,Gust SpeedMPH,PrecipitationIn,Events,Conditions,WindDirDegrees,DateUTC
12:16 AM,37.8,28.9,71,29.88,10.0,NNW,10.4,-,N/A,,Overcast,340,2013-03-02 05:16:00
12:36 AM,37.6,28.6,70,29.88,10.0,NNW,11.5,-,N/A,,Overcast,330,2013-03-02 05:36:00
12:56 AM,37.2,28.2,70,29.88,10.0,NW,10.4,-,N/A,,Overcast,320,2013-03-02 05:56:00
1:16 AM,36.9,27.7,69,29.88,10.0,NW,11.5,17.3,N/A,,Overcast,320,2013-03-02 06:16:00
1:36 AM,36.5,27.5,70,29.88,10.0,NW,10.4,-,N/A,,Overcast,320,2013-03-02 06:36:00
1:56 AM,35.6,28.4,75,29.88,10.0,NNW,12.7,16.1,N/A,,Overcast,330,2013-03-02 06:56:00
2:16 AM,35.6,27.9,73,29.88,10.0,NW,8.1,-,N/A,,Mostly Cloudy,320,2013-03-02 07:16:00
2:36 AM,35.6,27.9,73,29.88,10.0,NW,10.4,-,N/A,,Overcast,320,2013-03-02 07:36:00
2:56 AM,35.2,27.7,74,29.87,10.0,NW,10.4,-,N/A,,Overcast,320,2013-03-02 07:56:00
3:16 AM,35.1,27.9,75,29.87,10.0,NW,6.9,-,N/A,,Overcast,320,2013-03-02 08:16:00
3:36 AM,34.9,27.7,75,29.88,10.0,NW,6.9,-,N/A,,Overcast,310,2013-03-02 08:36:00
3:56 AM,34.7,27.7,76,29.88,10.0,NW,6.9,-,N/A,,Overcast,320,2013-03-02 08:56:00
4:17 AM,34.0,27.7,78,29.87,10.0,NNW,9.2,-,N/A,,Mostly Cloudy,330,2013-03-02 09:17:00
4:37 AM,33.8,28.4,81,29.87,10.0,NNW,9.2,-,N/A,,Mostly Cloudy,340,2013-03-02 09:37:00
4:57 AM,32.9,27.3,80,29.88,10.0,NW,5.8,-,N/A,,Scattered Clouds,320,2013-03-02 09:57:00
5:17 AM,32.9,27.5,81,29.87,10.0,NW,8.1,-,N/A,,Mostly Cloudy,320,2013-03-02 10:17:00
5:37 AM,32.5,28.0,83,29.88,10.0,NW,4.6,-,N/A,,Overcast,320,2013-03-02 10:37:00
5:53 AM,32.0,28.4,87,29.88,10.0,NNW,5.8,-,N/A,,Overcast,330,2013-03-02 10:53:00
5:57 AM,33.8,28.4,81,29.88,10.0,NNW,3.5,-,N/A,,Overcast,330,2013-03-02 10:57:00
6:17 AM,33.3,28.2,82,29.88,10.0,NNW,4.6,-,N/A,,Overcast,330,2013-03-02 11:17:00
6:37 AM,33.8,28.2,80,29.89,10.0,NNW,5.8,-,N/A,,Mostly Cloudy,330,2013-03-02 11:37:00
6:40 AM,33.8,28.2,80,29.89,10.0,NNW,8.1,-,N/A,,Mostly Cloudy,330,2013-03-02 11:40:00
6:53 AM,33.8,28.4,81,29.89,10.0,NNW,9.2,-,N/A,,Overcast,330,2013-03-02 11:53:00
7:53 AM,35.6,28.4,75,29.89,10.0,NNW,9.2,-,N/A,,Mostly Cloudy,330,2013-03-02 12:53:00
8:58 AM,37.4,26.6,65,29.90,10.0,NNW,10.4,17.3,N/A,,Overcast,340,2013-03-02 13:58:00
9:46 AM,37.4,26.6,65,29.90,10.0,NNW,8.1,-,N/A,,Overcast,340,2013-03-02 14:46:00
10:50 AM,37.4,24.8,60,29.89,10.0,NNW,10.4,-,N/A,,Overcast,340,2013-03-02 15:50:00
11:50 AM,37.4,26.6,65,29.88,10.0,NNW,9.2,-,N/A,,Overcast,340,2013-03-02 16:50:00
12:50 PM,37.4,24.8,60,29.85,10.0,NW,9.2,-,N/A,,Overcast,320,2013-03-02 17:50:00
1:45 PM,37.4,24.8,60,29.84,10.0,NW,11.5,17.3,N/A,,Overcast,310,2013-03-02 18:45:00
2:55 PM,37.4,26.6,65,29.83,10.0,NW,9.2,18.4,N/A,,Mostly Cloudy,310,2013-03-02 19:55:00
4:20 PM,37.4,26.6,65,29.83,5.0,NW,9.2,17.3,N/A,Snow,Light Snow,310,2013-03-02 21:20:00
4:52 PM,35.6,26.6,70,29.84,5.0,WNW,6.9,17.3,N/A,Snow,Light Snow,290,2013-03-02 21:52:00
5:50 PM,33.8,28.4,81,29.85,7.0,NW,8.1,-,N/A,Snow,Light Snow,320,2013-03-02 22:50:00
6:50 PM,35.6,26.6,70,29.87,10.0,NNW,6.9,-,N/A,,Overcast,330,2013-03-02 23:50:00
7:50 PM,35.6,24.8,65,29.86,10.0,NW,6.9,-,N/A,,Scattered Clouds,320,2013-03-03 00:50:00
8:50 PM,33.8,24.8,70,29.87,10.0,NW,9.2,-,N/A,,Mostly Cloudy,310,2013-03-03 01:50:00
9:59 PM,34.0,23.4,65,29.87,10.0,NNW,15.0,20.7,N/A,,Scattered Clouds,330,2013-03-03 02:59:00
10:19 PM,33.8,23.7,67,29.87,10.0,NW,10.4,-,N/A,,Scattered Clouds,320,2013-03-03 03:19:00
10:39 PM,33.4,23.5,67,29.87,10.0,NW,15.0,-,N/A,,Scattered Clouds,320,2013-03-03 03:39:00
10:59 PM,32.7,23.5,69,29.87,10.0,NW,12.7,18.4,N/A,,Scattered Clouds,320,2013-03-03 03:59:00
11:19 PM,32.0,23.7,71,29.87,10.0,NW,12.7,16.1,N/A,,Clear,320,2013-03-03 04:19:00
11:39 PM,32.0,23.9,72,29.87,10.0,NNW,10.4,-,N/A,,Clear,330,2013-03-03 04:39:00
11:59 PM,32.0,23.9,72,29.86,10.0,NW,10.4,16.1,N/A,,Clear,320,2013-03-03 04:59:00